Zurück zum Katalog

STARLINK-34757

AktivKommunikationSSO
NORAD 64850·PAYLOAD·🇺🇸 United States

Gestartet Jul 19, 2025 von Vandenberg Space Force Base

Loading…

Nächste Überflüge (nächste 24 Stunden)

TLE

AktuellSource: CelesTrak SupGP

Epoche: Sep 15, 2026, 03:54 UTC

1 64850C 25152J   26258.16298611 -.00081603  00000+0 -25328-2 0  2584
2 64850  97.2841 108.7855 0001849  92.0378 332.6529 15.33484535    13

Verfolge STARLINK-34757 in Echtzeit mit AllMySat

Download on the App Store